When you browse on this site, cookies collect data to enhance your experience and personalize the content and advertising you see.
Visit our Privacy Policy to learn more. By continuing to use the site, you agree to this use of cookies and data.

Stündliche Wetter Bolshie Ivanischi

Heute, 26 September, Samstag

Zeit Temperatur Niederschläge Wind Luftdruck Luftfeuchtigkeit
00:00 +13°C° 0 mm 3 m/S 753 mmHg 78%
01:00 +13°C° 0 mm 3 m/S 753 mmHg 81%
02:00 +12°C° 0 mm 3 m/S 753 mmHg 83%
03:00 +12°C° 0 mm 3 m/S 754 mmHg 83%
04:00 +12°C° 0 mm 3 m/S 754 mmHg 85%
05:00 +11°C° 0 mm 3 m/S 754 mmHg 87%
06:00 +11°C° 0 mm 3 m/S 754 mmHg 88%
07:00 +12°C° 0 mm 3 m/S 754 mmHg 84%
08:00 +13°C° 0 mm 3 m/S 754 mmHg 79%
09:00 +14°C° 0 mm 4 m/S 754 mmHg 74%
10:00 +15°C° 0 mm 4 m/S 754 mmHg 69%
11:00 +18°C° 0 mm 4 m/S 755 mmHg 64%
12:00 +19°C° 0 mm 4 m/S 755 mmHg 59%
13:00 +20°C° 0 mm 4 m/S 755 mmHg 58%
14:00 +20°C° 0 mm 4 m/S 755 mmHg 57%
15:00 +20°C° 0 mm 4 m/S 755 mmHg 56%
16:00 +19°C° 0 mm 4 m/S 755 mmHg 61%
17:00 +18°C° 0 mm 3 m/S 755 mmHg 66%
18:00 +16°C° 0 mm 3 m/S 755 mmHg 71%
19:00 +14°C° 0 mm 3 m/S 755 mmHg 72%
20:00 +13°C° 0 mm 3 m/S 755 mmHg 73%
21:00 +12°C° 0 mm 3 m/S 755 mmHg 74%
22:00 +12°C° 0 mm 3 m/S 755 mmHg 75%
23:00 +12°C° 0 mm 3 m/S 756 mmHg 76%

Morgen, 27 September, Sonntag

Zeit Temperatur Niederschläge Wind Luftdruck Luftfeuchtigkeit
00:00 +11°C° 0 mm 3 m/S 756 mmHg 77%
01:00 +11°C° 0 mm 3 m/S 756 mmHg 79%
02:00 +11°C° 0 mm 3 m/S 756 mmHg 81%
03:00 +11°C° 0 mm 3 m/S 756 mmHg 82%
04:00 +11°C° 0 mm 3 m/S 756 mmHg 83%
05:00 +10°C° 0 mm 3 m/S 756 mmHg 83%
06:00 +10°C° 0 mm 3 m/S 756 mmHg 84%
07:00 +11°C° 0 mm 3 m/S 756 mmHg 78%
08:00 +12°C° 0 mm 3 m/S 757 mmHg 73%
09:00 +13°C° 0 mm 3 m/S 757 mmHg 67%
10:00 +15°C° 0 mm 4 m/S 757 mmHg 61%
11:00 +17°C° 0 mm 4 m/S 757 mmHg 55%
12:00 +19°C° 0 mm 4 m/S 757 mmHg 49%
13:00 +19°C° 0 mm 4 m/S 757 mmHg 48%
14:00 +19°C° 0 mm 4 m/S 757 mmHg 47%
15:00 +19°C° 0 mm 4 m/S 757 mmHg 46%
16:00 +17°C° 0 mm 4 m/S 757 mmHg 51%
17:00 +16°C° 0 mm 3 m/S 757 mmHg 57%
18:00 +13°C° 0 mm 3 m/S 757 mmHg 63%
19:00 +13°C° 0 mm 3 m/S 757 mmHg 64%
20:00 +12°C° 0 mm 3 m/S 757 mmHg 65%
21:00 +11°C° 0 mm 3 m/S 757 mmHg 66%
22:00 +11°C° 0 mm 3 m/S 757 mmHg 67%
23:00 +10°C° 0 mm 3 m/S 757 mmHg 68%

übermorgen, 28 September, Montag

Zeit Temperatur Niederschläge Wind Luftdruck Luftfeuchtigkeit
00:00 +10°C° 0 mm 3 m/S 758 mmHg 69%
01:00 +10°C° 0 mm 3 m/S 757 mmHg 70%
02:00 +10°C° 0 mm 3 m/S 757 mmHg 71%
03:00 +9°C° 0 mm 3 m/S 757 mmHg 72%
04:00 +9°C° 0 mm 3 m/S 757 mmHg 72%
05:00 +9°C° 0 mm 3 m/S 757 mmHg 73%
06:00 +8°C° 0 mm 3 m/S 757 mmHg 74%
07:00 +8°C° 0 mm 4 m/S 757 mmHg 70%
08:00 +10°C° 0 mm 4 m/S 757 mmHg 67%
09:00 +11°C° 0 mm 4 m/S 757 mmHg 63%
10:00 +12°C° 0 mm 4 m/S 757 mmHg 63%
11:00 +12°C° 0 mm 4 m/S 757 mmHg 62%
12:00 +12°C° 0 mm 4 m/S 757 mmHg 61%
13:00 +12°C° 0 mm 4 m/S 757 mmHg 64%
14:00 +11°C° 0 mm 4 m/S 757 mmHg 67%
15:00 +11°C° 0 mm 4 m/S 757 mmHg 70%
16:00 +11°C° 0 mm 4 m/S 757 mmHg 71%
17:00 +11°C° 0 mm 3 m/S 757 mmHg 72%
18:00 +10°C° 0 mm 3 m/S 757 mmHg 73%
19:00 +10°C° 0 mm 3 m/S 757 mmHg 74%
20:00 +10°C° 0 mm 3 m/S 757 mmHg 75%
21:00 +10°C° 0 mm 3 m/S 757 mmHg 76%
22:00 +10°C° 0 mm 3 m/S 757 mmHg 76%
23:00 +10°C° 0 mm 3 m/S 757 mmHg 76%

29 September, Dienstag

Zeit Temperatur Niederschläge Wind Luftdruck Luftfeuchtigkeit
00:00 +11°C° 0 mm 3 m/S 757 mmHg 76%
01:00 +10°C° 0 mm 3 m/S 757 mmHg 77%
02:00 +10°C° 0 mm 3 m/S 757 mmHg 79%
03:00 +10°C° 0 mm 3 m/S 757 mmHg 81%
04:00 +9°C° 0 mm 3 m/S 757 mmHg 81%
05:00 +9°C° 0 mm 2 m/S 757 mmHg 80%
06:00 +9°C° 0 mm 2 m/S 757 mmHg 80%
07:00 +10°C° 0 mm 2 m/S 757 mmHg 77%
08:00 +11°C° 0 mm 3 m/S 757 mmHg 73%
09:00 +12°C° 0 mm 3 m/S 757 mmHg 70%
10:00 +12°C° 0 mm 3 m/S 757 mmHg 66%
11:00 +13°C° 0 mm 3 m/S 757 mmHg 63%
12:00 +14°C° 0 mm 3 m/S 757 mmHg 60%
13:00 +14°C° 0 mm 3 m/S 757 mmHg 60%
14:00 +14°C° 0 mm 3 m/S 757 mmHg 59%
15:00 +14°C° 0 mm 3 m/S 757 mmHg 59%
16:00 +13°C° 0 mm 3 m/S 757 mmHg 60%
17:00 +13°C° 0 mm 3 m/S 757 mmHg 62%
18:00 +13°C° 0 mm 3 m/S 757 mmHg 63%
19:00 +12°C° 0 mm 3 m/S 757 mmHg 64%
20:00 +12°C° 0 mm 3 m/S 757 mmHg 64%
21:00 +11°C° 0 mm 3 m/S 757 mmHg 65%
22:00 +10°C° 0 mm 3 m/S 757 mmHg 67%
23:00 +10°C° 0 mm 3 m/S 757 mmHg 68%

30 September, Mittwoch

Zeit Temperatur Niederschläge Wind Luftdruck Luftfeuchtigkeit
00:00 +9°C° 0 mm 3 m/S 757 mmHg 70%
01:00 +9°C° 0 mm 3 m/S 757 mmHg 70%
02:00 +8°C° 0 mm 3 m/S 757 mmHg 70%
03:00 +8°C° 0 mm 3 m/S 757 mmHg 70%
04:00 +8°C° 0 mm 3 m/S 757 mmHg 70%
05:00 +7°C° 0 mm 3 m/S 757 mmHg 70%
06:00 +7°C° 0 mm 3 m/S 757 mmHg 70%
07:00 +8°C° 0 mm 3 m/S 757 mmHg 67%
08:00 +9°C° 0 mm 3 m/S 757 mmHg 65%
09:00 +10°C° 0 mm 3 m/S 757 mmHg 63%
10:00 +12°C° 0 mm 4 m/S 757 mmHg 58%
11:00 +14°C° 0 mm 4 m/S 757 mmHg 54%
12:00 +15°C° 0 mm 4 m/S 757 mmHg 49%
13:00 +17°C° 0 mm 4 m/S 756 mmHg 48%
14:00 +17°C° 0 mm 4 m/S 756 mmHg 46%
15:00 +18°C° 0 mm 4 m/S 756 mmHg 45%
16:00 +15°C° 0 mm 4 m/S 756 mmHg 51%
17:00 +14°C° 0 mm 3 m/S 756 mmHg 57%
18:00 +13°C° 0 mm 3 m/S 756 mmHg 63%
19:00 +12°C° 0 mm 3 m/S 756 mmHg 65%
20:00 +12°C° 0 mm 3 m/S 757 mmHg 68%
21:00 +12°C° 0 mm 3 m/S 757 mmHg 70%
22:00 +11°C° 0 mm 3 m/S 757 mmHg 72%
23:00 +11°C° 0 mm 3 m/S 757 mmHg 74%

1 Oktober, Donnerstag

Zeit Temperatur Niederschläge Wind Luftdruck Luftfeuchtigkeit
00:00 +11°C° 0 mm 3 m/S 757 mmHg 76%
01:00 +11°C° 0 mm 3 m/S 757 mmHg 77%
02:00 +10°C° 0 mm 3 m/S 757 mmHg 78%
03:00 +10°C° 0 mm 3 m/S 757 mmHg 79%
04:00 +10°C° 0 mm 3 m/S 757 mmHg 80%
05:00 +10°C° 0 mm 3 m/S 757 mmHg 80%
06:00 +9°C° 0 mm 3 m/S 757 mmHg 80%
07:00 +10°C° 0 mm 3 m/S 757 mmHg 76%
08:00 +11°C° 0 mm 4 m/S 757 mmHg 72%
09:00 +12°C° 0 mm 4 m/S 757 mmHg 68%
10:00 +13°C° 0 mm 4 m/S 757 mmHg 63%
11:00 +15°C° 0 mm 4 m/S 757 mmHg 58%
12:00 +17°C° 0 mm 4 m/S 757 mmHg 53%
13:00 +18°C° 0 mm 4 m/S 757 mmHg 52%
14:00 +18°C° 0 mm 4 m/S 757 mmHg 51%
15:00 +19°C° 0 mm 5 m/S 757 mmHg 51%
16:00 +17°C° 0 mm 4 m/S 757 mmHg 56%
17:00 +15°C° 0 mm 4 m/S 757 mmHg 60%
18:00 +14°C° 0 mm 4 m/S 757 mmHg 65%
19:00 +13°C° 0 mm 4 m/S 758 mmHg 67%
20:00 +13°C° 0 mm 4 m/S 758 mmHg 68%
21:00 +12°C° 0 mm 4 m/S 758 mmHg 70%
22:00 +12°C° 0 mm 4 m/S 758 mmHg 72%
23:00 +11°C° 0 mm 3 m/S 758 mmHg 73%
Mehr zeigen